Location: Hojšín
(49.6525°N, 14.2661°E)
Time: 21:51:16
(UTC+00:00)

Daily predictions for brighter satellites

Satellite Brightness Start Highest point End
(mag) Time Altitude Azimuth Time Altitude Azimuth Time Altitude Azimuth
CZ-4C R/B 2.7 16:42:04 10° S 16:45:37 27° ESE 16:49:53 10° ENE
Meteor 2-21 Rocket 4.5 16:40:01 10° S 16:46:13 79° E 16:52:27 10° NNE
Radarsat Rocket 4.4 16:40:57 10° SE 16:46:25 43° ENE 16:52:16 10° N
Cosmos 2173 Rocket 4.1 16:40:05 10° N 16:46:26 87° W 16:52:39 10° S
Lacrosse 5 rocket 1.0 16:47:39 10° SW 16:51:04 67° SE 16:54:38 10° ENE
NOSS 0 Rocket 4.2 16:46:04 10° NNW 16:52:09 49° NE 16:58:10 10° SE
Cosmos 2100 Rocket 4.3 16:46:29 10° NNW 16:52:46 77° W 16:58:56 10° S
Cosmos 489 Rocket 4.5 16:46:54 10° SSW 16:53:05 75° ESE 16:59:18 10° NNE
SAR-Lupe-1 4.1 16:49:54 10° SSE 16:53:23 55° ENE 16:56:55 10° N
Cosmos 2151 Rocket 3.9 16:49:07 10° N 16:53:27 44° ENE 16:57:45 10° SSE
Meteor 1-21 Rocket 4.3 16:49:11 10° S 16:55:02 72° E 17:00:57 10° NNE
SJ-6F 4.3 16:51:30 10° SSE 16:55:27 80° ENE 16:59:23 10° NNW
BlueWalker 3 4.2 16:53:34 10° W 16:56:27 23° SW 16:59:19 10° SSE
Cosmos 2082 Rocket 4.4 16:52:45 10° W 16:56:40 19° NW 17:00:35 10° N
CARTOSAT-1 4.2 16:55:21 10° SE 16:59:04 32° ENE 17:02:49 10° N
USA 267 3.4 16:55:17 10° ENE 17:01:50 74° NNW 17:08:21 10° WSW
Cosmos 1356 Rocket 3.4 16:59:04 10° N 17:02:54 50° ENE 17:06:45 10° SSE
Cosmos 1607 4.2 16:57:04 10° SSW 17:02:56 51° ESE 17:08:54 10° NE
Cosmos 2297 Rocket 3.3 17:01:29 10° SSE 17:05:45 22° ESE 17:10:01 10° NE
USA 290 2.3 17:03:16 10° S 17:06:23 52° ESE 17:09:31 10° NNE
Cosmos 1441 Rocket 4.1 17:03:13 10° SSW 17:06:27 45° WNW 17:09:41 10° N
In-Cosmos 22 Rocket 4.5 17:01:24 10° SSW 17:06:53 75° WNW 17:12:33 10° N
SAR-Lupe-5 4.4 17:06:51 10° N 17:09:25 71° WNW 17:11:53 10° SSW
Cosmos 1814 Rocket 4.0 17:04:13 10° S 17:09:25 65° ESE 17:14:38 10° NNE
SAR-Lupe-4 3.5 17:05:57 10° SSE 17:09:31 88° E 17:13:07 10° NNW
Cosmos 1125 Rocket 3.7 17:08:06 10° NNW 17:13:08 48° ENE 17:18:09 10° SE
Cosmos 1455 Rocket 4.0 17:10:19 10° NNE 17:13:54 25° ENE 17:17:28 10° SE
Cosmos 2221 Rocket 4.0 17:15:29 10° SSE 17:19:38 39° E 17:23:50 10° NNE
YAOGAN 1 2.4 17:16:24 10° SSE 17:20:39 82° ENE 17:24:55 10° NNW
Cosmos 2123 Rocket 4.2 17:15:37 10° SSW 17:21:56 78° W 17:28:18 10° N
Okean 2 Rocket 3.0 17:18:20 10° N 17:22:44 65° ENE 17:27:04 10° SSE
NOAA 6 4.1 17:18:35 10° SSE 17:23:37 59° ENE 17:28:42 10° N
NOSS 3-3 (C) 4.0 17:18:55 10° SSW 17:23:49 45° ESE 17:29:14 12° NE
Spot 4 Rocket 3.9 17:20:46 10° SSE 17:25:51 75° ENE 17:30:59 10° NNW
Okean 1 Rocket 3.0 17:21:50 10° N 17:26:13 61° ENE 17:30:32 10° SSE
COSMOS 2428 2.8 17:22:52 10° NNW 17:28:39 85° WSW 17:34:22 10° SSE
SL-19 R/B 4.4 17:25:12 10° SSE 17:31:21 70° ENE 17:37:17 10° NNW
Terra 3.9 17:33:16 10° NE 17:33:16 10° NE 17:33:28 10° NE
Sich 1 Rocket 3.6 17:27:44 10° N 17:32:17 67° ENE 17:36:49 10° SSE
Cosmos 1980 3.8 17:26:49 10° NNW 17:32:23 54° NE 17:37:55 10° SE
ARIANE 5 R/B 4.2 17:27:55 10° SSW 17:32:39 37° W 17:37:23 10° NNW
Cosmos 158 Rocket 3.9 17:32:36 10° SSW 17:37:27 82° WNW 17:42:21 10° NNE
Aureole 3 Rocket 2.8 17:33:26 10° N 17:37:47 56° ENE 17:41:08 10° SSE
Cosmos 2237 Rocket 2.3 17:32:25 10° NNW 17:38:01 55° NE 17:43:36 10° SE
SeaSat 1 4.2 17:35:00 10° S 17:39:27 34° WSW 17:43:55 10° NW
ATLAS 5 CENTAUR R/B 3.3 17:35:33 10° WNW 17:39:33 36° SW 17:44:24 10° S
Cosmos 1378 Rocket 4.1 17:36:13 10° SSW 17:40:29 58° WNW 17:44:44 10° N
Resurs 01 Rocket 1.5 17:36:38 10° SSE 17:40:57 63° ENE 17:45:19 10° N
SKYMED 2 4.1 17:38:22 10° N 17:42:41 62° WNW 17:46:58 10° SSW
ARIANE 6 FM1 Upper Stage 4.3 17:40:25 10° NNW 17:43:15 18° NNE 17:44:14 17° NE
GP-B 4.4 17:40:07 10° SSW 17:44:15 42° W 17:48:26 10° NNW
Cosmos 2346 Rocket 4.4 17:39:16 10° S 17:45:30 73° E 17:51:46 10° NNE
COSMO-SKYMED 1 2.4 17:42:53 10° NNE 17:47:02 90° ESE 17:51:09 10° SSW
Cosmos 2228 3.7 17:45:14 10° N 17:48:57 30° ENE 17:49:16 30° E
PSLV R/B 3.6 17:46:43 10° S 17:50:50 76° WSW 17:54:58 10° NNW
Cosmos 2150 Rocket 4.5 17:46:36 10° NNW 17:51:27 38° ENE 17:53:31 27° ESE
NOSS 3-3 (A) 3.6 17:47:24 10° SW 17:52:34 78° SE 17:57:36 16° NE
Cosmos 1447 Rocket 4.4 17:47:45 10° S 17:53:52 76° E 18:00:01 10° NNE
USA 306 2.4 17:52:38 10° WNW 17:55:03 36° SW 17:55:03 36° SW
Cosmos 1025 Rocket 3.3 17:54:30 10° SSW 17:58:46 68° WNW 18:03:06 10° N
Cosmos 2285 Rocket 4.0 17:53:17 10° NNW 17:59:46 89° WSW 18:06:10 10° SSE
SL-16 R/B 3.0 17:56:25 10° NNW 18:01:23 30° NE 18:02:27 28° ENE
Cosmos 1891 Rocket 4.5 17:55:29 10° N 18:01:54 78° E 18:08:22 10° SSE
Cosmos 1375 Rocket 4.4 17:57:16 10° SSW 18:03:39 83° SE 18:09:12 15° NE
Cosmos 2227 Rocket 3.2 17:59:51 10° SSE 18:03:35 26° ESE 18:03:35 26° ESE
SJ-6B 2.3 18:05:12 17° SSE 18:07:47 85° ENE 18:11:16 10° NNW
SPOT 5 3.2 18:08:21 37° ESE 18:09:35 45° ENE 18:14:22 10° N
NOSS 3-4 (A) 3.7 18:03:49 10° NW 18:10:24 72° NE 18:15:10 25° SE
NOSS 3-4 (C) 3.7 18:04:05 10° NW 18:10:41 72° NE 18:15:23 25° SE
Cosmos 2034 Rocket 4.2 18:10:17 10° N 18:16:10 44° ENE 18:18:04 35° ESE
Cosmos 1072 Rocket 4.4 18:11:48 10° N 18:18:04 70° ENE 18:24:14 10° SSE
Cosmos 1513 Rocket 4.5 18:12:10 10° N 18:18:27 89° E 18:24:49 10° S
CZ-4 R/B 3.1 18:28:09 19° N 18:28:09 19° N 18:29:20 10° N
CZ-4B R/B 3.8 18:26:45 35° NE 18:26:45 35° NE 18:30:52 10° N
ATLAS 2AS CENTAUR R/B 4.2 18:21:26 10° WNW 18:27:09 27° NNW 18:31:15 16° NE
Lacrosse 5 rocket 2.2 18:24:54 10° W 18:28:08 33° NNW 18:28:21 33° N
Atlas Centaur 2 4.5 18:25:11 10° SSW 18:28:35 14° S 18:30:59 12° SSE
CZ-4B DEB 4.2 18:29:55 50° ESE 18:30:50 56° ENE 18:36:11 10° N
Meteor 1-31 Rocket 4.2 18:32:59 25° N 18:32:59 25° N 18:34:32 10° N
ADEOS 4.2 18:32:00 37° NE 18:32:00 37° NE 18:35:56 10° N
CZ-4C R/B 2.5 18:29:01 10° WSW 18:33:20 52° NW 18:36:09 26° NNE
Feng Yun 1-1 Rocket 4.3 18:36:42 53° ESE 18:37:35 58° ENE 18:43:21 10° N
USA 267 3.8 18:41:48 32° NE 18:44:26 48° N 18:50:40 10° WNW
Cosmos 1464 Rocket 4.0 18:39:49 10° N 18:46:13 82° W 18:52:32 10° S
CSL-04 Debris 4.0 18:44:38 44° SSE 18:46:27 86° ENE 18:51:56 10° NNW
ERS-1 Rocket 4.0 18:48:49 32° NNE 18:48:49 32° NNE 18:51:44 10° N
Cosmos 2297 Rocket 2.4 18:43:35 10° SW 18:49:14 70° WNW 18:52:38 25° NNE
CSL-04 Rocket 3.5 18:47:26 40° S 18:49:24 84° WSW 18:54:43 10° NNW
Cosmos 1570 Rocket 4.1 18:44:49 10° SSW 18:50:06 73° WNW 18:52:48 29° NNE
Cosmos 2344 3.7 18:44:06 10° SSW 18:51:12 46° SE 18:51:12 46° SE
Cosmos 1455 Rocket 4.5 18:47:44 10° NNW 18:51:41 36° W 18:55:37 10° SSW
Cosmos 1975 Rocket 4.3 18:48:14 10° SSW 18:50:38 32° SSW 18:50:38 32° SSW
Cosmos 1943 4.5 18:47:56 10° NNW 18:51:36 27° NNE 18:51:36 27° NNE
DNEPR-1 R/B 3.8 18:49:17 10° NW 18:54:08 89° ENE 18:54:13 87° SE
PAYLOAD B 4.1 19:05:27 86° NNE 19:05:27 86° NNE 19:11:00 10° NNW
Cosmos 2208 Rocket 4.1 19:02:04 10° SSW 19:07:17 73° WNW 19:07:29 72° NW
Terra 3.6 19:11:53 22° N 19:11:53 22° N 19:13:33 10° N
Resurs 01 Rocket 4.4 19:14:57 10° SW 19:17:45 16° W 19:20:33 10° NW
Cosmos 2237 Rocket 3.9 19:16:56 10° NW 19:21:46 29° WSW 19:25:52 13° SSW
SL-16 R/B 3.1 19:40:17 10° NW 19:44:20 44° WNW 19:44:20 44° WNW
Cosmos 2227 Rocket 3.7 19:42:40 10° SW 19:45:30 30° WSW 19:45:30 30° WSW
ATLAS 2AS CENTAUR R/B 4.2 20:14:25 10° NW 20:18:40 26° N 20:18:40 26° N
CZ-4C R/B 4.3 20:18:47 10° WNW 20:21:07 20° NW 20:21:07 20° NW
USA 267 4.4 20:29:08 38° NW 20:29:08 38° NW 20:33:13 10° WNW
